TimeCDT,TemperatureF,Dew PointF,Humidity,Sea Level PressureIn,VisibilityMPH,Wind Direction,Wind SpeedMPH,Gust SpeedMPH,PrecipitationIn,Events,Conditions,WindDirDegrees,DateUTC
12:52 AM,25.0,17.1,72,30.36,10.0,SE,8.1,-,N/A,,Overcast,140,2014-03-24 05:52:00
1:52 AM,25.0,18.0,75,30.36,9.0,SSE,6.9,-,N/A,,Overcast,160,2014-03-24 06:52:00
2:52 AM,24.1,19.0,81,30.36,7.0,South,6.9,-,N/A,,Overcast,170,2014-03-24 07:52:00
3:52 AM,24.1,19.0,81,30.34,4.0,South,9.2,-,0.00,Snow,Light Snow,170,2014-03-24 08:52:00
4:03 AM,24.1,19.9,84,30.28,1.8,SSE,8.1,-,0.00,Snow,Light Snow,160,2014-03-24 09:03:00
4:52 AM,23.0,21.9,96,30.32,1.8,SSE,8.1,-,0.00,Snow,Light Snow,150,2014-03-24 09:52:00
5:41 AM,23.0,23.0,100,30.26,2.0,SSE,6.9,-,0.01,Snow,Light Snow,150,2014-03-24 10:41:00
5:52 AM,23.0,23.0,100,30.32,2.5,SSE,5.8,-,0.01,Snow,Light Snow,150,2014-03-24 10:52:00
6:19 AM,23.0,23.0,100,30.26,1.8,SE,5.8,-,0.00,Snow,Light Snow,140,2014-03-24 11:19:00
6:52 AM,23.0,23.0,100,30.32,1.5,South,5.8,-,0.01,Snow,Light Snow,170,2014-03-24 11:52:00
7:31 AM,23.0,23.0,100,30.26,1.8,SSE,3.5,-,0.00,Snow,Light Snow,160,2014-03-24 12:31:00
7:52 AM,23.0,23.0,100,30.32,1.2,SSE,4.6,-,0.00,Snow,Light Snow,160,2014-03-24 12:52:00
7:59 AM,21.9,21.9,100,30.25,1.2,SSE,4.6,-,0.00,Snow,Light Snow,150,2014-03-24 12:59:00
8:11 AM,21.9,21.9,100,30.25,1.5,SE,4.6,-,0.00,Snow,Light Snow,140,2014-03-24 13:11:00
8:22 AM,21.9,21.9,100,30.25,3.0,SSE,4.6,-,0.00,,Overcast,160,2014-03-24 13:22:00
8:32 AM,21.9,21.9,100,30.25,4.0,South,4.6,-,0.00,,Overcast,170,2014-03-24 13:32:00
8:45 AM,23.0,23.0,100,30.26,5.0,South,3.5,-,0.00,,Overcast,180,2014-03-24 13:45:00
8:52 AM,23.0,23.0,100,30.32,5.0,South,3.5,-,0.00,,Overcast,180,2014-03-24 13:52:00
9:00 AM,24.1,23.0,96,30.25,5.0,South,4.6,-,N/A,,Overcast,190,2014-03-24 14:00:00
9:21 AM,24.1,23.0,96,30.26,4.0,South,8.1,-,0.00,Snow,Light Snow,180,2014-03-24 14:21:00
9:34 AM,24.1,23.0,96,30.26,2.0,South,8.1,-,0.00,Snow,Light Snow,180,2014-03-24 14:34:00
9:42 AM,24.1,24.1,100,30.25,1.8,South,6.9,-,0.00,Snow,Light Snow,170,2014-03-24 14:42:00
9:52 AM,25.0,24.1,96,30.31,1.8,South,8.1,-,0.00,Snow,Light Snow,180,2014-03-24 14:52:00
10:03 AM,25.0,24.1,96,30.26,1.5,South,10.4,-,0.00,Snow,Light Snow,190,2014-03-24 15:03:00
10:12 AM,25.0,23.0,92,30.25,1.8,South,9.2,-,0.00,Snow,Light Snow,190,2014-03-24 15:12:00
10:20 AM,25.0,23.0,92,30.26,1.8,South,9.2,-,0.00,Snow,Light Snow,190,2014-03-24 15:20:00
10:28 AM,25.0,24.1,96,30.26,2.0,SSW,10.4,-,0.00,Snow,Light Snow,200,2014-03-24 15:28:00
10:52 AM,26.1,24.1,92,30.32,3.0,SSW,10.4,-,0.00,Snow,Light Snow,200,2014-03-24 15:52:00
11:08 AM,26.1,24.1,92,30.25,3.0,SSW,10.4,-,0.00,Snow,Light Snow,210,2014-03-24 16:08:00
11:17 AM,27.0,25.0,92,30.25,3.0,SSW,9.2,-,0.00,Snow,Light Snow,210,2014-03-24 16:17:00
11:28 AM,27.0,24.1,89,30.25,5.0,SW,10.4,-,0.00,,Mostly Cloudy,230,2014-03-24 16:28:00
11:42 AM,28.0,24.1,85,30.24,9.0,WSW,10.4,-,0.00,,Mostly Cloudy,240,2014-03-24 16:42:00
11:50 AM,28.4,24.8,86,30.24,10.0,SW,10.4,-,0.00,,Scattered Clouds,230,2014-03-24 16:50:00
11:52 AM,28.9,24.1,82,30.30,10.0,WSW,12.7,-,0.00,,Scattered Clouds,240,2014-03-24 16:52:00
12:23 PM,30.0,24.1,79,30.23,10.0,West,12.7,-,N/A,,Mostly Cloudy,270,2014-03-24 17:23:00
12:52 PM,32.0,25.0,75,30.28,10.0,West,12.7,-,N/A,,Mostly Cloudy,270,2014-03-24 17:52:00
1:39 PM,32.0,23.0,69,30.20,10.0,WNW,10.4,-,N/A,,Overcast,300,2014-03-24 18:39:00
1:48 PM,32.0,24.8,75,30.20,9.0,NW,16.1,-,N/A,,Overcast,310,2014-03-24 18:48:00
1:52 PM,30.9,24.1,76,30.25,5.0,NW,17.3,-,0.00,Snow,Light Snow,310,2014-03-24 18:52:00
2:14 PM,32.0,24.1,73,30.19,10.0,West,13.8,-,0.00,,Overcast,280,2014-03-24 19:14:00
2:52 PM,30.9,25.0,79,30.24,3.0,NW,18.4,-,0.00,Snow,Light Snow,310,2014-03-24 19:52:00
2:57 PM,30.0,26.1,85,30.18,1.8,NW,16.1,-,0.00,Snow,Light Snow,310,2014-03-24 19:57:00
3:04 PM,30.9,28.0,89,30.18,2.0,NNW,16.1,-,0.00,Snow,Light Snow,330,2014-03-24 20:04:00
3:07 PM,30.9,28.0,89,30.18,3.0,NNW,12.7,-,0.00,Snow,Light Snow,330,2014-03-24 20:07:00
3:46 PM,30.2,26.6,86,30.17,1.8,NW,19.6,25.3,0.00,Snow,Light Snow,320,2014-03-24 20:46:00
3:52 PM,30.0,27.0,88,30.22,1.2,NW,15.0,25.3,0.00,Snow,Light Snow,320,2014-03-24 20:52:00
4:03 PM,30.0,26.1,85,30.17,2.0,NNW,13.8,-,0.00,Snow,Light Snow,330,2014-03-24 21:03:00
4:11 PM,30.9,27.0,85,30.16,9.0,NW,13.8,-,0.00,,Mostly Cloudy,320,2014-03-24 21:11:00
4:34 PM,34.0,28.0,79,30.16,7.0,NNW,18.4,23.0,0.00,,Mostly Cloudy,340,2014-03-24 21:34:00
4:45 PM,30.0,24.1,79,30.16,5.0,NNW,17.3,-,0.00,Snow,Light Snow,330,2014-03-24 21:45:00
4:52 PM,32.0,25.0,75,30.21,8.0,NW,16.1,-,0.00,,Overcast,320,2014-03-24 21:52:00
5:52 PM,30.9,19.0,61,30.21,10.0,NW,18.4,-,N/A,,Scattered Clouds,310,2014-03-24 22:52:00
6:52 PM,28.9,21.0,72,30.22,9.0,WNW,15.0,-,0.00,,Mostly Cloudy,300,2014-03-24 23:52:00
7:52 PM,27.0,21.0,78,30.22,10.0,NNW,18.4,26.5,N/A,,Partly Cloudy,330,2014-03-25 00:52:00
8:52 PM,26.1,19.9,78,30.21,10.0,NW,8.1,-,N/A,,Partly Cloudy,310,2014-03-25 01:52:00
9:52 PM,25.0,19.0,78,30.21,10.0,WNW,10.4,-,N/A,,Clear,300,2014-03-25 02:52:00
10:52 PM,23.0,18.0,81,30.21,10.0,West,8.1,-,N/A,,Clear,280,2014-03-25 03:52:00
11:52 PM,21.9,17.1,82,30.22,10.0,WNW,10.4,-,N/A,,Clear,300,2014-03-25 04:52:00